Weather in Bereznik

Russia / Arkhangel'skaya Oblast'     61°14′08″N   43°37′26″E
temp.,
°C
wind,
m/s
gust,
m/s
humid.,
%
clouds,
%
prec.,
mm/h
press.,
hPa
HPBL,
m
29 june, wed
wed2900:00+6n246714 0.0 102656
03:00+5n25715 0.0 102690
06:00+10n25585 0.0 1026238
09:00+15n354111 0.0 10251110
12:00+18n3434100 0.0 10231431
15:00+19nnw3433100 0.0 10221487
18:00+18nnw364247 0.0 10201220
21:00+12nw22635 0.0 101913
30 june, thu
thu3000:00+9nw26664 0.0 101886
03:00+7nnw27734 0.0 1018110
06:00+12n385981 0.0 1018298
09:00+17n47507 0.0 10171199
12:00+19nne57323 0.0 10181786
15:00+20nne57312 0.0 10181914
18:00+19ne36415 0.0 10181826
21:00+12ne22665 0.0 101911
1 july, fri
fri100:00+9nne117029 0.0 102110
03:00+8ene117181 0.0 102110
06:00+13wnw01585 0.0 1021114
09:00+19nw12392 0.0 1021927
12:00+22nw133266 0.0 10201621
15:00+23nnw343071 0.0 10191497
18:00+22n034715 0.0 1017498
21:00+16wnw1162100 0.0 101711
2 july, sat
sat200:00+15n23618 0.0 101752
03:00+12nne279038 0.0 1017134
06:00+15nne37795 0.0 1017441
09:00+18nne466134 0.0 10171085
12:00+18ne566053 0.0 10181186
15:00+20ne455314 0.0 10171249
18:00+20nne34565 0.0 10171204
21:00+15nne22805 0.0 101727
3 july, sun
sun300:00+12nne229296 0.0 101717
03:00+12nnw119398 0.0 101710
06:00+16n24724 0.0 1016227
09:00+21n35484 0.0 10151136
12:00+24n3536100 0.0 10141670
15:00+24n4534100 0.0 10141758
18:00+23n35436 0.0 1013993
21:00+16n226717 0.0 101315